Weather History for Watford City, ND

Change the Weather History Date:

Thursday, October 11, 2012

  Actual Average (KISN) Record (KISN)
Temperature  
Mean Temperature 34 °F 45 °F  
Max Temperature 39 °F 59 °F 85 °F (1934)
Min Temperature 28 °F 32 °F 17 °F (1907)
Degree Days  
Heating Degree Days 32 20  
Month to date heating degree days 193  
Since 1 July heating degree days 539  
Cooling Degree Days 0 0  
Month to date cooling degree days 0  
Year to date cooling degree days 455  
Moisture  
Dew Point 26 °F    
Average Humidity 76    
Maximum Humidity 100    
Minimum Humidity 45    
Precipitation  
Precipitation 0.00 in 0.03 in 1.74 in (2013)
Month to date precipitation 0.35  
Year to date precipitation 12.53  
Snow  
Snow 0.00 in 0.10 in 1.50 in (1928)
Month to date snowfall 0.6  
Since 1 July snowfall 0.8  
Since 1 September snowfall 0.8  
Snow Depth -    
Sea Level Pressure  
Sea Level Pressure 30.24 in    
Wind  
Wind Speed 8 mph (North)    
Max Wind Speed 17 mph    
Max Gust Speed 22 mph    
Visibility 10 miles    
Events Rain , Snow    
T = Trace of Precipitation, MM = Missing Value Source: NWS Daily Summary

Daily Weather History Graph

Daily Weather History Graph

Search for Another Location

Airport:

Trip Planner

Search our weather history database for the weather conditions in past years. The results will help you decide how hot, cold, wet, or windy it might be!

Date:

Astronomy

Oct. 11, 2012 Rise Set
Actual Time 8:07 AM CDT 7:11 PM CDT
Civil Twilight 7:36 AM CDT 7:42 PM CDT
Nautical Twilight 7:00 AM CDT 8:18 PM CDT
Astronomical Twilight 6:24 AM CDT 8:53 PM CDT
Moon 3:31 AM CDT (10/11) 5:03 PM CDT (10/11)
Length of Visible Light 12h 06m
Length of Day
11h 04m
Waning Crescent, 18% of the Moon is Illuminated
Oct 11
Waning Crescent
Oct 15
New
Oct 21
First Quarter
Oct 29
Full
Nov 6
Last Quarter

Hourly Weather History & Observations

Time (CDT) Temp. Windchill Dew Point Humidity Pressure Visibility Wind Dir Wind Speed Gust Speed Precip Events Conditions
12:15 AM 37.4 °F 31.4 °F 32.0 °F 81% 30.07 in 10.0 mi North 8.1 mph - N/A   Overcast
12:55 AM 37.4 °F 29.3 °F 32.0 °F 81% 30.08 in 10.0 mi North 12.7 mph - N/A   Overcast
1:15 AM 35.6 °F 25.9 °F 32.0 °F 87% 30.09 in 8.0 mi North 16.1 mph - N/A Rain Light Rain
1:35 AM 35.6 °F 25.5 °F 32.0 °F 87% 30.11 in 10.0 mi North 17.3 mph 21.9 mph N/A   Overcast
1:55 AM 33.8 °F 24.3 °F 32.0 °F 93% 30.11 in 10.0 mi North 13.8 mph - N/A   Overcast
2:15 AM 33.8 °F 24.8 °F 30.2 °F 87% 30.12 in 10.0 mi North 12.7 mph 18.4 mph N/A   Overcast
2:55 AM 32.0 °F 23.6 °F 30.2 °F 93% 30.14 in 10.0 mi North 10.4 mph - N/A Rain Light Rain
3:15 AM 32.0 °F 24.2 °F 32.0 °F 100% 30.15 in 10.0 mi North 9.2 mph - N/A   Overcast
3:35 AM 32.0 °F 26.4 °F 30.2 °F 93% 30.16 in 7.0 mi North 5.8 mph - N/A Snow Light Snow
3:55 AM 32.0 °F 25.6 °F 30.2 °F 93% 30.17 in 10.0 mi North 6.9 mph - N/A   Overcast
4:15 AM 32.0 °F 24.2 °F 28.4 °F 87% 30.18 in 10.0 mi NNW 9.2 mph - N/A   Overcast
4:35 AM 32.0 °F 25.6 °F 28.4 °F 87% 30.18 in 10.0 mi North 6.9 mph - N/A   Overcast
4:55 AM 32.0 °F 25.6 °F 28.4 °F 87% 30.19 in 10.0 mi NNW 6.9 mph - N/A   Overcast
5:15 AM 32.0 °F 25.6 °F 28.4 °F 87% 30.20 in 10.0 mi NNW 6.9 mph - N/A   Mostly Cloudy
5:35 AM 32.0 °F 24.8 °F 28.4 °F 87% 30.20 in 10.0 mi NNW 8.1 mph - N/A   Mostly Cloudy
5:55 AM 32.0 °F 25.6 °F 28.4 °F 87% 30.21 in 10.0 mi NNW 6.9 mph - N/A   Overcast
6:15 AM 32.0 °F 25.6 °F 28.4 °F 87% 30.21 in 10.0 mi North 6.9 mph - N/A   Overcast
6:35 AM 32.0 °F 28.7 °F 28.4 °F 87% 30.22 in 10.0 mi NNW 3.5 mph - N/A   Overcast
6:55 AM 32.0 °F 28.7 °F 28.4 °F 87% 30.23 in 10.0 mi NW 3.5 mph - N/A   Overcast
7:15 AM 32.0 °F 26.4 °F 30.2 °F 93% 30.23 in 10.0 mi NW 5.8 mph - N/A   Overcast
7:35 AM 32.0 °F 25.6 °F 30.2 °F 93% 30.24 in 10.0 mi NW 6.9 mph - N/A   Overcast
7:55 AM 32.0 °F 25.6 °F 30.2 °F 93% 30.25 in 10.0 mi NW 6.9 mph - N/A   Overcast
8:15 AM 32.0 °F 24.2 °F 30.2 °F 93% 30.26 in 10.0 mi NW 9.2 mph - N/A   Overcast
8:35 AM 32.0 °F 26.4 °F 28.4 °F 87% 30.27 in 10.0 mi NNW 5.8 mph - N/A   Overcast
8:55 AM 32.0 °F 25.6 °F 28.4 °F 87% 30.28 in 10.0 mi NW 6.9 mph - N/A   Overcast
9:15 AM 32.0 °F 25.6 °F 28.4 °F 87% 30.28 in 10.0 mi NNW 6.9 mph - N/A   Overcast
9:35 AM 32.0 °F 25.6 °F 28.4 °F 87% 30.29 in 10.0 mi North 6.9 mph - N/A   Overcast
9:55 AM 32.0 °F 25.6 °F 28.4 °F 87% 30.30 in 10.0 mi North 6.9 mph - N/A   Overcast
10:15 AM 32.0 °F 25.6 °F 28.4 °F 87% 30.30 in 10.0 mi NNW 6.9 mph - N/A   Overcast
10:35 AM 32.0 °F 25.6 °F 28.4 °F 87% 30.31 in 10.0 mi North 6.9 mph - N/A   Overcast
10:55 AM 32.0 °F 24.2 °F 28.4 °F 87% 30.32 in 10.0 mi North 9.2 mph - N/A   Overcast
11:15 AM 32.0 °F 25.6 °F 28.4 °F 87% 30.32 in 10.0 mi North 6.9 mph - N/A   Overcast
11:35 AM 33.8 °F 27.7 °F 26.6 °F 75% 30.33 in 10.0 mi NNW 6.9 mph - N/A   Mostly Cloudy
11:55 AM 33.8 °F 28.6 °F 26.6 °F 75% 30.33 in 10.0 mi NW 5.8 mph - N/A   Mostly Cloudy
12:15 PM 33.8 °F 27.7 °F 26.6 °F 75% 30.33 in 10.0 mi NNW 6.9 mph - N/A   Mostly Cloudy
12:55 PM 35.6 °F 32.8 °F 24.8 °F 65% 30.33 in 10.0 mi NNW 3.5 mph - N/A   Scattered Clouds
1:15 PM 35.6 °F 31.7 °F 24.8 °F 65% 30.32 in 10.0 mi NNE 4.6 mph - N/A   Mostly Cloudy
1:35 PM 35.6 °F 31.7 °F 24.8 °F 65% 30.32 in 10.0 mi North 4.6 mph - N/A   Mostly Cloudy
1:55 PM 37.4 °F 33.8 °F 24.8 °F 60% 30.32 in 10.0 mi NNE 4.6 mph - N/A   Mostly Cloudy
2:15 PM 37.4 °F - 23.0 °F 56% 30.31 in 10.0 mi Calm Calm - N/A   Partly Cloudy
2:35 PM 37.4 °F - 23.0 °F 56% 30.31 in 10.0 mi Calm Calm - N/A   Scattered Clouds
2:55 PM 37.4 °F 32.1 °F 21.2 °F 52% 30.30 in 10.0 mi WNW 6.9 mph - N/A   Mostly Cloudy
3:15 PM 37.4 °F - 19.4 °F 48% 30.30 in 10.0 mi Calm Calm - N/A   Mostly Cloudy
3:55 PM 37.4 °F 33.8 °F 19.4 °F 48% 30.30 in 10.0 mi WNW 4.6 mph - N/A   Mostly Cloudy
4:15 PM 39.2 °F 35.9 °F 19.4 °F 45% 30.30 in 10.0 mi NW 4.6 mph - N/A   Partly Cloudy
5:35 PM 39.2 °F - 19.4 °F 45% 30.28 in 10.0 mi Calm Calm - N/A   Scattered Clouds
5:55 PM 39.2 °F - 19.4 °F 45% 30.28 in 10.0 mi Calm Calm - N/A   Clear
6:35 PM 37.4 °F 32.8 °F 21.2 °F 52% 30.27 in 10.0 mi ESE 5.8 mph - N/A   Clear
6:55 PM 35.6 °F 31.7 °F 21.2 °F 56% 30.27 in 10.0 mi East 4.6 mph - N/A   Clear
7:15 PM 33.8 °F 29.6 °F 21.2 °F 60% 30.27 in 10.0 mi ESE 4.6 mph - N/A   Clear
7:35 PM 32.0 °F 26.4 °F 23.0 °F 69% 30.26 in 10.0 mi East 5.8 mph - N/A   Clear
8:15 PM 28.4 °F 22.2 °F 21.2 °F 74% 30.26 in 10.0 mi East 5.8 mph - N/A   Clear
8:35 PM 30.2 °F 23.4 °F 21.2 °F 69% 30.26 in 10.0 mi ESE 6.9 mph - N/A   Clear
8:55 PM 28.4 °F 20.4 °F 21.2 °F 74% 30.26 in 10.0 mi ESE 8.1 mph - N/A   Scattered Clouds
9:15 PM 32.0 °F 25.6 °F 23.0 °F 69% 30.25 in 10.0 mi ENE 6.9 mph - N/A   Overcast
9:35 PM 32.0 °F 24.2 °F 23.0 °F 69% 30.25 in 10.0 mi ESE 9.2 mph - N/A   Overcast
9:55 PM 32.0 °F 24.2 °F 23.0 °F 69% 30.24 in 10.0 mi ESE 9.2 mph - N/A   Overcast
10:15 PM 32.0 °F 24.2 °F 23.0 °F 69% 30.24 in 10.0 mi ESE 9.2 mph - N/A   Overcast
10:55 PM 32.0 °F 24.2 °F 24.8 °F 75% 30.23 in 10.0 mi ESE 9.2 mph - N/A   Overcast
11:15 PM 33.8 °F 26.4 °F 24.8 °F 70% 30.22 in 10.0 mi SE 9.2 mph - N/A   Overcast
11:35 PM 33.8 °F 26.4 °F 24.8 °F 70% 30.21 in 10.0 mi SE 9.2 mph - N/A   Overcast
11:55 PM 33.8 °F 27.7 °F 24.8 °F 70% 30.20 in 10.0 mi SE 6.9 mph - N/A   Overcast